Location: Bazugues
(43.4465°N, 0.3432°E)
Time: 20:38:37
(UTC+00:00)

Daily predictions for brighter satellites

Satellite Brightness Start Highest point End
(mag) Time Altitude Azimuth Time Altitude Azimuth Time Altitude Azimuth
Cosmos 2074 Rocket 4.3 17:07:14 10° N 17:13:30 75° W 17:19:41 10° S
Cosmos 1500 Rocket 4.2 17:12:51 10° NNW 17:17:14 61° W 17:21:35 10° S
Cosmos 304 Rocket 3.8 17:12:50 10° NNW 17:17:31 57° ENE 17:22:11 10° SE
Meteor 2-10 Rocket 4.5 17:12:39 10° NNW 17:18:09 59° W 17:23:46 10° S
Cosmos 1953 3.6 17:16:30 10° NNE 17:18:59 17° ENE 17:21:28 10° ESE
Cosmos 676 Rocket 4.4 17:16:45 10° N 17:21:37 39° ENE 17:26:28 10° SE
BREEZE M DEB (TANK) 2.1 17:22:46 10° NW 17:24:48 50° NNE 17:28:02 10° ESE
SL-16 R/B 3.2 17:19:13 10° N 17:25:15 58° WNW 17:31:15 10° SW
YAOGAN 1 3.7 17:26:47 10° ESE 17:30:02 22° ENE 17:33:17 10° NNE
Cosmos 2369 Rocket 2.2 17:24:22 10° NNW 17:30:07 82° ENE 17:35:48 10° SSE
Cosmos 1484 Rocket 4.3 17:27:28 10° SSW 17:30:33 34° W 17:33:39 10° NNW
Cosmos 1943 3.3 17:29:30 10° S 17:34:59 58° ESE 17:40:32 10° NNE
Cosmos 2297 3.7 17:30:25 10° NNW 17:36:06 85° ENE 17:41:46 10° SSE
Landsat 7 3.8 17:31:53 10° SSE 17:36:32 85° WSW 17:41:13 10° NNW
NOSS 3-4 (A) 4.0 17:32:38 10° S 17:37:10 31° ESE 17:41:28 12° ENE
NOSS 3-4 (C) 4.0 17:32:46 10° S 17:37:19 30° ESE 17:41:36 12° ENE
NOSS 3-2 (C) 4.2 17:30:06 10° NW 17:37:38 86° NE 17:46:38 10° SE
Cosmos 1758 4.0 17:34:57 10° NNW 17:38:31 51° W 17:42:03 10° S
Cosmos 1241 Rocket 4.5 17:35:21 10° NNW 17:41:36 90° SSW 17:47:49 10° SSE
Cosmos 2263 4.1 17:36:32 10° NNW 17:42:16 77° ENE 17:47:53 10° SSE
SMAP 3.6 17:37:52 10° S 17:42:28 63° WSW 17:47:07 10° NNW
SJ 16-02 1.2 17:38:30 10° NNW 17:42:48 88° ENE 17:47:04 10° SSE
USA 276 3.9 17:42:44 10° SSE 17:43:43 12° SE 17:44:20 11° ESE
Cosmos 1470 Rocket 3.9 17:42:20 10° N 17:46:26 41° ENE 17:50:32 10° SSE
UNK 4.4 17:44:19 10° N 17:48:44 55° WNW 17:53:08 10° SSW
Meteor 1-23 Rocket 4.5 17:44:35 10° SSE 17:50:01 48° E 17:55:25 10° NNE
Cosmos 2251 Rocket 4.1 17:47:29 10° NNW 17:52:41 61° WSW 17:57:49 10° S
SL-16 R/B 3.4 17:47:57 10° SW 17:53:15 40° WNW 17:58:34 10° NNE
Cosmos 2218 Rocket 4.1 17:47:05 10° N 17:53:25 59° E 17:59:41 10° SSE
Cosmos 2366 rocket 4.0 17:47:09 10° N 17:53:28 63° E 17:59:44 10° SSE
PSLV R/B 4.3 17:50:52 10° SE 17:54:23 27° ENE 17:57:54 10° N
Cosmos 1703 3.2 17:52:00 10° SSE 17:55:07 40° E 17:57:38 14° NNE
ERS-1 4.5 17:53:01 10° SSE 17:57:57 84° WSW 18:02:57 10° NNW
Meteor 1-21 4.4 17:53:17 10° SSE 17:58:41 51° E 18:04:05 10° NNE
NOSS 2-3 (E) 4.3 17:54:18 10° NNW 17:59:34 72° NE 18:06:44 10° SE
SJ-12 4.2 17:56:12 10° S 17:59:58 63° W 18:03:46 10° NNW
OPS 8737 4.2 18:00:48 10° NNW 18:03:48 52° NE 18:05:46 19° ESE
Cosmos 2341 Rocket 4.0 17:58:02 10° N 18:04:24 82° E 18:10:40 10° S
BREEZE-M DEB (TANK) 2.4 18:02:51 10° SW 18:05:07 59° SE 18:06:55 26° ENE
DNEPR-1 R/B 4.2 18:05:55 10° S 18:10:07 36° ESE 18:11:37 27° ENE
Meteor 1-15 Rocket 4.3 18:04:16 10° N 18:10:13 90° WNW 18:16:06 10° S
Cosmos 2056 Rocket 4.1 18:05:32 10° SW 18:10:35 56° WNW 18:15:38 10° NNE
ATLAS 5 CENTAUR R/B 1.5 18:08:24 10° SW 18:11:16 45° NW 18:13:00 21° NNE
NOAA 15 4.5 18:06:13 10° SSE 18:11:23 66° ENE 18:16:35 10° N
BREEZE-M DEB (TANK) 2.9 18:09:44 10° NW 18:11:57 29° NNE 18:11:58 29° NNE
ARIANE 5 R/B 3.5 18:08:11 10° S 18:13:15 50° W 18:18:21 10° NNW
Meteor 1-16 Rocket 4.1 18:08:56 10° N 18:14:09 56° ENE 18:19:25 10° SSE
USA 215 3.2 18:10:46 19° NE 18:15:40 73° SE 18:22:12 10° SW
CZ-4 R/B 4.4 18:12:44 10° S 18:16:41 78° W 18:20:39 10° NNW
Nadezhda 3 Rocket 4.3 18:14:51 10° SSE 18:20:28 39° E 18:26:06 10° NNE
SJ-7 4.1 18:18:46 10° SSE 18:22:30 62° ENE 18:26:16 10° N
Cosmos 1633 Rocket 4.1 18:19:47 10° NNW 18:23:55 47° W 18:28:03 10° SSW
Cosmos 1959 Rocket 4.4 18:18:20 10° N 18:24:29 88° W 18:30:38 10° S
ISS -3.4 18:21:58 10° SW 18:25:11 46° SE 18:25:24 45° SE
Resurs 1-3 3.4 18:22:14 10° SSE 18:26:33 86° ENE 18:30:52 10° NNW
Meteor 2-13 Rocket 4.4 18:21:33 10° S 18:27:39 70° E 18:33:47 10° NNE
Cosmos 292 Rocket 4.2 18:28:09 10° N 18:32:17 38° NE 18:32:17 38° NE
BREEZE-M DEB (TANK) 2.8 18:30:28 10° WSW 18:33:21 77° NNW 18:36:26 30° ENE
CARTOSAT-1 3.5 18:29:58 10° SSE 18:34:05 57° ENE 18:38:13 10° N
Cosmos 1656 4.1 18:31:35 10° N 18:36:46 36° ENE 18:36:54 36° ENE
SKYMED 2 4.5 18:34:49 10° N 18:39:01 48° WNW 18:43:11 10° SW
CZ-2D R/B 3.7 18:38:02 10° S 18:41:52 61° W 18:45:40 10° NNW
DMSP B5D1-3 4.4 18:40:06 32° NE 18:42:22 59° E 18:47:21 10° S
SL-4 R/B 3.2 18:41:39 10° WNW 18:45:18 37° SW 18:47:15 21° SSE
USA 238 DEB 3.9 18:40:47 10° NW 18:48:18 82° NE 18:56:27 10° SE
USA 238 3.9 18:40:54 10° NW 18:48:24 81° NE 18:56:25 11° SE
COSMO-SKYMED 1 2.9 18:45:34 17° N 18:48:35 60° WNW 18:52:37 10° SSW
USA 267 3.3 18:46:12 37° E 18:48:43 59° NNE 18:55:07 10° NW
YAOGAN 3 4.3 18:45:29 10° SSE 18:49:40 77° ENE 18:53:54 10° N
Cosmos 1741 Rocket 3.8 18:44:51 10° NNW 18:50:06 83° ENE 18:55:17 10° SSE
Cosmos 968 Rocket 3.7 18:45:23 10° NNW 18:50:30 68° WSW 18:55:33 10° S
BREEZE-M DEB (TANK) 3.8 18:46:46 10° WNW 18:50:49 37° N 18:50:58 37° N
Resurs 01 Rocket 1.9 18:53:13 51° NNE 18:53:13 51° NNE 18:56:38 10° N
Cosmos 1603 3.8 18:47:00 10° SSW 18:52:39 72° WNW 18:56:03 25° NNE
Cosmos 1953 4.0 18:50:50 10° NNW 18:54:07 31° W 18:57:24 10° SSW
Cosmos 1331 Rocket 4.3 18:49:13 10° SSW 18:54:17 65° WNW 18:57:24 24° N
Cosmos 1850 Rocket 4.1 18:53:58 10° NNW 18:59:16 78° WSW 19:04:34 10° SSE
Okean 2 3.7 18:57:45 10° SSW 19:01:32 57° W 19:02:03 52° NW
Cosmos 1302 Rocket 3.9 18:57:00 10° S 19:01:58 64° ESE 19:01:58 64° ESE
Cosmos 332 Rocket 4.4 18:58:59 10° NNW 19:03:39 54° WSW 19:08:17 10° S
RESURS DK-1 3.6 19:00:25 10° SSW 19:02:34 31° S 19:02:34 31° S
NOAA 6 4.3 18:59:21 10° S 19:04:23 67° WSW 19:09:30 10° NNW
YAOGAN 1 4.1 19:01:45 10° SSW 19:05:39 35° W 19:09:35 10° NNW
Cosmos 1833 Rocket 4.5 19:03:45 10° SSE 19:05:14 17° SSE 19:05:14 17° SSE
SL-08 R/B 4.4 19:08:29 10° N 19:14:58 84° E 19:21:26 10° S
Cosmos 1452 Rocket 4.1 19:11:13 10° SW 19:16:20 56° WNW 19:18:18 35° N
Cosmos 1339 Rocket 4.3 19:17:01 10° S 19:23:15 90° N 19:25:09 48° N
NOSS 3-4 (A) 4.1 19:22:42 10° WSW 19:27:43 43° NW 19:28:55 38° NNW
NOSS 3-4 (C) 4.0 19:22:48 10° WSW 19:27:51 43° NW 19:29:04 38° NNW
USA 215 4.0 19:58:06 43° NNW 19:58:27 44° NNW 20:04:33 10° W
USA 267 4.4 20:33:34 39° W 20:33:34 39° W 20:38:05 10° WNW
